Volver al catálogo

STARLINK-35976

ActivoComunicacionesVLEO
NORAD 66534·PAYLOAD·🇺🇸 United States

Lanzado Nov 19, 2025 desde Cape Canaveral Space Force Station

Loading…

Próximos Pases (próximas 24 horas)

TLE

ActualizadoSource: CelesTrak SupGP

Época: Sep 15, 2026, 04:04 UTC

1 66534C 25265U   26258.16993056 -.00011978  00000+0 -43370-3 0  2581
2 66534  43.0032 288.2177 0001545 273.1077 234.6422 15.27596056    15

Sigue STARLINK-35976 en tiempo real con AllMySat

Download on the App Store